Hourly Data Report for May 10, 2018

TORONTO CITY
ONTARIO
Current Station Operator: ECCC - MSC

43°40'00.000" N
79°24'00.000" W
112.50 m
6158355
71508
XTO

Download Data

Hourly Data (May 2018)
Hourly Data Report for May 10, 2018
TIME
LST
Temp Definition
°C
Dew Point Definition
°C
Rel Hum Definition
%
Precip. Amount Definition
mm

Wind Dir Definition
10's deg

Wind Spd Definition
km/h
Visibility Definition
km
Stn Press Definition
kPa
Hmdx Definition


Wind Chill Definition


Weather Definition


00:00 17.3 8.8 57 0.0 LegendMM LegendMM   99.40     LegendNANA
01:00 16.9 10.4 65 0.0 LegendMM LegendMM   99.26     LegendNANA
02:00 18.4 9.6 57 0.0 LegendMM LegendMM   99.26     LegendNANA
03:00 16.7 12.2 75 0.4 LegendMM LegendMM   99.08     LegendNANA
04:00 15.8 12.2 79 0.3 LegendMM LegendMM   99.07     LegendNANA
05:00 14.9 12.6 86 1.4 LegendMM LegendMM   99.07     LegendNANA
06:00 14.4 12.3 87 0.0 LegendMM LegendMM   99.06     LegendNANA
07:00 14.1 12.2 89 0.0 LegendMM LegendMM   99.08     LegendNANA
08:00 14.9 11.9 82 0.0 LegendMM LegendMM   99.05     LegendNANA
09:00 19.8 12.9 65 0.0 LegendMM LegendMM   99.10     LegendNANA
10:00 19.8 10.6 56 0.0 LegendMM LegendMM   99.20     LegendNANA
11:00 20.3 9.7 51 0.0 LegendMM LegendMM   99.28     LegendNANA
12:00 19.7 9.4 51 0.0 LegendMM LegendMM   99.36     LegendNANA
13:00 19.9 9.5 51 0.0 LegendMM LegendMM   99.39     LegendNANA
14:00 20.3 9.3 49 0.0 LegendMM LegendMM   99.43     LegendNANA
15:00 19.0 9.6 54 0.0 LegendMM LegendMM   99.49     LegendNANA
16:00 18.4 9.1 55 0.0 LegendMM LegendMM   99.50     LegendNANA
17:00 17.9 8.9 55 0.0 LegendMM LegendMM   99.59     LegendNANA
18:00 16.1 7.0 55 0.0 LegendMM LegendMM   99.66     LegendNANA
19:00 14.7 0.0 37 0.0 LegendMM LegendMM   99.74     LegendNANA
20:00 13.8 -0.6 37 0.0 LegendMM LegendMM   99.87     LegendNANA
21:00 12.3 -0.5 41 0.0 LegendMM LegendMM   99.99     LegendNANA
22:00 10.2 -10.2 23 0.0 LegendMM LegendMM   100.07     LegendNANA
23:00 8.5 -8.2 30 0.0 LegendMM LegendMM   100.14     LegendNANA

Notes on Data Quality.

Legend

  • E = Estimated
  • M = Missing
  • NA = Not Available*
  • [empty] = Indicates an unobserved value
Date modified: